Louisville, KY

2:30 PM EDT on October 18, 2017 (GMT -0400)
Louisville International-Standiford

Weather History for KSDF - November, 2014

Change the Weather History Date:

Saturday, November 29, 2014

  Actual Average Record
Temperature  
Mean Temperature 47 °F 43 °F  
Max Temperature 60 °F 51 °F 74 °F (1927)
Min Temperature 34 °F 35 °F 4 °F (1872)
Degree Days  
Heating Degree Days 18 22  
Month to date heating degree days 685 470  
Since 1 July heating degree days 886 712  
Cooling Degree Days 0 0  
Month to date cooling degree days 0 0  
Year to date cooling degree days 1625 1609  
Moisture  
Dew Point 37 °F    
Average Humidity 61    
Maximum Humidity 72    
Minimum Humidity 49    
Precipitation  
Precipitation 0.00 in 0.13 in 2.00 in (2001)
Month to date precipitation 1.71 3.46  
Year to date precipitation 39.70 40.95  
Snow  
Snow 0.00 in 0.00 in 2.30 in (1952)
Month to date snowfall 3.7 0.1  
Since 1 July snowfall 3.7 0.2  
Since 1 September snowfall 3.7 0.2  
Snow Depth 0.00 in    
Sea Level Pressure  
Sea Level Pressure 29.97 in    
Wind  
Wind Speed 12 mph (South)    
Max Wind Speed 26 mph    
Max Gust Speed 34 mph    
Visibility 10 miles    
Events      
T = Trace of Precipitation, MM = Missing Value Source: NWS Daily Summary

Daily Weather History Graph

Daily Weather History Graph

Search for Another Location

Airport or City:

Trip Planner

Search our weather history database for the weather conditions in past years. The results will help you decide how hot, cold, wet, or windy it might be!

Date:

Astronomy

Nov. 29, 2014 Rise Set
Actual Time 7:38 AM EST 5:23 PM EST
Civil Twilight 7:09 AM EST 5:52 PM EST
Nautical Twilight 6:37 AM EST 6:25 PM EST
Astronomical Twilight 6:05 AM EST 6:57 PM EST
Moon 1:11 PM EST (11/29) 12:08 AM EST (11/29)
Length of Visible Light 10h 43m
Length of Day
9h 45m
First Quarter, 53% of the Moon is Illuminated
Nov 29
First Quarter
Dec 6
Full
Dec 14
Last Quarter
Dec 21
New
Dec 28
First Quarter

Hourly Weather History & Observations

Time (EST) Temp. Windchill Dew Point Humidity Pressure Visibility Wind Dir Wind Speed Gust Speed Precip Events Conditions
12:56 AM 36.0 °F 31.1 °F 21.9 °F 57% 30.08 in 10.0 mi SE 5.8 mph - N/A   Mostly Cloudy
1:56 AM 35.1 °F 30.1 °F 21.9 °F 59% 30.08 in 10.0 mi SE 5.8 mph - N/A   Mostly Cloudy
2:56 AM 36.0 °F 31.1 °F 23.0 °F 59% 30.07 in 10.0 mi SE 5.8 mph - N/A   Mostly Cloudy
3:56 AM 34.0 °F 28.0 °F 23.0 °F 64% 30.06 in 10.0 mi SE 6.9 mph - N/A   Mostly Cloudy
4:56 AM 37.9 °F 31.5 °F 23.0 °F 55% 30.04 in 10.0 mi SSE 9.2 mph - N/A   Mostly Cloudy
5:56 AM 39.9 °F 33.9 °F 24.1 °F 53% 30.03 in 10.0 mi South 9.2 mph - N/A   Mostly Cloudy
6:56 AM 42.1 °F 35.7 °F 25.0 °F 51% 30.01 in 10.0 mi South 11.5 mph - N/A   Mostly Cloudy
7:28 AM 44.1 °F 37.7 °F 26.1 °F 49% 30.00 in 10.0 mi South 12.7 mph - N/A   Overcast
7:56 AM 45.0 °F 39.3 °F 27.0 °F 49% 30.01 in 10.0 mi South 11.5 mph - N/A   Overcast
8:56 AM 46.9 °F - 30.0 °F 52% 30.01 in 10.0 mi South 11.5 mph - N/A   Overcast
9:56 AM 48.9 °F - 33.1 °F 54% 30.00 in 10.0 mi South 11.5 mph - N/A   Overcast
10:56 AM 51.1 °F - 37.9 °F 61% 30.00 in 10.0 mi SSW 13.8 mph - N/A   Overcast
11:56 AM 54.0 °F - 41.0 °F 62% 29.98 in 10.0 mi SSW 15.0 mph 25.3 mph N/A   Overcast
12:49 PM 55.9 °F - 41.0 °F 57% 29.95 in 10.0 mi SW 15.0 mph 23.0 mph N/A   Overcast
12:56 PM 57.0 °F - 41.0 °F 55% 29.96 in 10.0 mi SW 17.3 mph 23.0 mph N/A   Mostly Cloudy
1:49 PM 55.0 °F - 42.1 °F 62% 29.93 in 10.0 mi SSW 15.0 mph 32.2 mph N/A   Overcast
1:56 PM 55.0 °F - 43.0 °F 64% 29.93 in 10.0 mi SSW 21.9 mph 29.9 mph N/A   Overcast
2:56 PM 55.0 °F - 44.1 °F 67% 29.92 in 10.0 mi SSW 15.0 mph 24.2 mph N/A   Overcast
3:56 PM 55.9 °F - 45.0 °F 67% 29.91 in 10.0 mi SSW 13.8 mph 20.7 mph N/A   Overcast
4:56 PM 55.9 °F - 45.0 °F 67% 29.90 in 10.0 mi South 11.5 mph - N/A   Overcast
5:13 PM 55.9 °F - 45.0 °F 67% 29.88 in 10.0 mi South 12.7 mph 20.7 mph N/A   Overcast
5:56 PM 57.0 °F - 45.0 °F 64% 29.88 in 10.0 mi South 13.8 mph - N/A   Overcast
6:56 PM 57.0 °F - 45.0 °F 64% 29.89 in 10.0 mi South 11.5 mph - N/A   Overcast
7:56 PM 57.0 °F - 46.0 °F 67% 29.89 in 10.0 mi SSW 13.8 mph 23.0 mph N/A   Overcast
8:56 PM 57.9 °F - 48.0 °F 70% 29.91 in 10.0 mi SSW 12.7 mph - N/A   Overcast
9:56 PM 59.0 °F - 48.9 °F 69% 29.91 in 10.0 mi South 15.0 mph 23.0 mph N/A   Overcast
10:56 PM 59.0 °F - 48.9 °F 69% 29.91 in 10.0 mi South 15.0 mph 25.3 mph N/A   Overcast
11:56 PM 60.1 °F - 50.0 °F 69% 29.92 in 10.0 mi SSW 17.3 mph 27.6 mph N/A   Mostly Cloudy